Погода в Головино

Россия / Владимирская область     55°57′09″N   40°26′15″E
темп.,
°C
ветер,
м/с
пор.,
м/с
влажн.,
%
обл.,
%
осадки,
мм/ч
давл.,
гПа
погр.,
м
7 мая, пт
пт700:00+9юз399099 0.4 1007654
03:00+7юз3792100 0.4 1009295
06:00+7юз3790100 0.0 1009391
09:00+10з3567100 0.0 1010928
12:00+13зюз474276 0.0 10112392
15:00+14з4834100 0.0 10122745
18:00+13юз354766 0.0 1012603
21:00+7ююз226985 0.0 101428
8 мая, сб
сб800:00+7ю31072100 0.0 1015190
03:00+5ююв31074100 0.0 1014191
06:00+7ююв41370100 0.0 1013416
09:00+10ююв61263100 0.0 10121061
12:00+12ююв71663100 0.1 10091649
15:00+9ююв61683100 2.0 10071349
18:00+10ююв61593100 2.4 10051229
21:00+10ю51196100 3.4 1004979
9 мая, вс
вс900:00+9ю3997100 0.2 1004367
03:00+6зюз41092100 0.2 1008754
06:00+3зсз51297100 0.1 1009679
09:00+5зсз4988100 0.2 10131003
12:00+7зсз5768100 0.1 10161366
15:00+8зсз4765100 0.1 10191439
18:00+9ссз276197 0.0 10211265
21:00+4сз22822 0.0 102414
10 мая, пн
пн1000:00+3сз22830 0.0 102611
03:00+2сз22867 0.0 102828
06:00+5ссз11725 0.0 103054
09:00+12сз11465 0.0 1031583
12:00+15сз12365 0.0 10301488
15:00+16сз22365 0.0 10301664
18:00+15ссв11515 0.0 1030128
21:00+9ю11675 0.0 103110
11 мая, вт
вт1100:00+7ю11675 0.0 103210
03:00+6ююз11727 0.0 103310
06:00+8ю0069100 0.0 103330
09:00+15юв124917 0.0 1033516
12:00+18юв234061 0.0 10321233
15:00+19вюв22405 0.0 10311426
18:00+18вюв235867 0.0 1030121
21:00+11юв227359 0.0 103024